Tracking 30918 objects as of 2-Jul-2025
HD Live streaming from Space Station
objects crossing your sky now

FENGYUN 1C DEB

Track FENGYUN 1C DEB now!
10-day predictions


NORAD ID: 30404
Int'l Code: 1999-025ADT
Perigee: 855.3 km
Apogee: 1,422.5 km
Inclination: 99.8 °
Period: 107.9 minutes
Semi major axis: 7509 km
RCS: 0.0064 m2 (small)
Launch date: May 10, 1999
Source: People's Republic of China (PRC)
Launch site: Taiyaun Space Center, China (TSC)

Note: This is SATELLITE DEBRIS
Your satellite tracking list
THOR ABLESTAR R/B
Track 1 satellite(s)




NASA's NSSDC Master Catalog

Two Line Element Set (TLE):
1 30404U 99025ADT 25181.51395307  .00000548  00000-0  79458-3 0  9999
2 30404  99.8352 279.4724 0377659 174.8885 185.6269 13.33983153558332
Source of the keplerian elements: AFSPC